Terminal Aerodrome Forecast
Issued by NWS

Home | Current Version | Previous Version | Text Only | Print | Product List | Glossary On
Versions: 1 2 3 4 5 6 7 8 9 10 11 12 13
000
FTUS44 KCRP 060530
TAFLRD
TAF
KLRD 060530Z 0606/0706 13012KT P6SM BKN018 OVC050
     FM061500 13012KT P6SM VCSH BKN022 OVC050
      TEMPO 0615/0619 -SHRA BKN015 OVC040
     FM062000 12015KT P6SM VCSH BKN035 BKN070
      TEMPO 0620/0623 -SHRA BKN025 OVC050
     FM070400 13011KT P6SM BKN022=

USA.gov is the U.S. government's official web portal to all federal, state and local government web resources and services.